Le nostre stazioni meteo in Italia

Pubblicità
Il mio iltempo24.it
Parma, Italia (16086): Temperatura & dewpoint: 14.01.2019 07:00:00 - 20.01.2019 07:00:00 (CET)Parma, Italia (16086): velocità del vento: 14.01.2019 07:00:00 - 20.01.2019 07:00:00 (CET)Parma, Italia (16086): direzione del vento: 14.01.2019 07:00:00 - 20.01.2019 07:00:00 (CET)Parma, Italia (16086): reduced air pressure: 14.01.2019 07:00:00 - 20.01.2019 07:00:00 (CET)Parma, Italia (16086): precipitazioni: 14.01.2019 07:00:00 - 20.01.2019 07:00:00 (CET)
Data & Tempo tt [°C] td [°C] ff [km/h] ff [kn] dd ppp [hPa] rr [mm]
20.01.2019 07:00:00 - - - - - - -
20.01.2019 06:00:00 2,9 1,3 2 1 NNO 1015,3 -
20.01.2019 05:00:00 3,8 1,0 - - - 1015,5 0,0
20.01.2019 04:00:00 3,9 1,1 3 1 OSO 1015,8 0,0
20.01.2019 03:00:00 4,1 1,0 1 1 OSO 1016,0 0,0
20.01.2019 02:00:00 4,1 1,0 - - - 1016,1 0,0
20.01.2019 01:00:00 3,8 0,5 4 2 OSO 1016,4 0,0
20.01.2019 00:00:00 - - - - - - -
19.01.2019 23:00:00 4,1 0,8 - - - 1017,0 -
19.01.2019 22:00:00 4,1 0,6 2 1 NO 1016,9 0,0
19.01.2019 21:00:00 4,3 0,4 2 1 NNO 1016,7 0,0
19.01.2019 20:00:00 4,4 0,5 2 1 NNO 1016,7 0,0
19.01.2019 19:00:00 4,3 0,3 1 1 ENE 1016,6 0,0
19.01.2019 18:00:00 4,4 0,2 - - - 1016,5 0,0
19.01.2019 17:00:00 4,6 0,4 - - - 1016,6 0,0
19.01.2019 16:00:00 4,9 0,5 6 3 ENE 1016,7 0,0
19.01.2019 15:00:00 5,1 0,3 6 3 ENE 1016,9 0,0
19.01.2019 14:00:00 4,9 -0,1 6 4 ENE 1017,2 0,0
19.01.2019 13:00:00 4,3 -0,1 6 3 NE 1017,8 0,0
19.01.2019 12:00:00 4,1 -0,7 6 3 E 1018,5 0,0
19.01.2019 11:00:00 3,8 0,3 4 2 NE 1019,1 0,0
19.01.2019 10:00:00 3,4 0,4 4 2 ESE 1018,7 0,0
19.01.2019 09:00:00 3,2 1,2 4 2 SE 1018,4 0,0
19.01.2019 08:00:00 2,8 0,7 - - - 1017,9 0,0
19.01.2019 07:00:00 2,6 1,3 9 5 E 1017,8 0,2
19.01.2019 06:00:00 3,0 1,7 7 4 ENE 1017,9 0,0
19.01.2019 05:00:00 3,1 1,6 5 3 NE 1018,1 0,2
19.01.2019 04:00:00 3,5 0,9 6 4 ENE 1018,1 0,0
19.01.2019 03:00:00 3,6 0,5 14 7 NE 1018,1 0,0
19.01.2019 02:00:00 3,8 2,0 11 6 ENE 1017,8 0,4
19.01.2019 01:00:00 4,1 2,6 10 5 NE 1017,7 0,6
19.01.2019 00:00:00 4,3 3,7 8 5 ENE 1017,8 0,6
18.01.2019 23:00:00 - - - - - - -
18.01.2019 22:00:00 5,6 2,8 9 5 ENE 1017,1 0,0
18.01.2019 21:00:00 5,8 2,8 5 3 NE 1016,7 0,0
18.01.2019 20:00:00 5,9 2,5 6 3 ENE 1016,5 0,0
18.01.2019 19:00:00 6,0 3,0 11 6 E 1016,1 0,0
18.01.2019 18:00:00 6,2 4,4 11 6 ENE 1015,7 0,0
18.01.2019 17:00:00 6,2 3,0 3 2 S 1015,2 0,0
18.01.2019 16:00:00 6,1 2,9 4 2 E 1014,9 0,0
18.01.2019 15:00:00 5,8 3,1 7 4 ENE 1014,3 0,0
18.01.2019 14:00:00 5,8 3,5 8 4 NNE 1013,7 0,0
18.01.2019 13:00:00 5,2 3,4 7 4 NNO 1013,5 0,0
18.01.2019 12:00:00 5,4 2,9 6 3 O 1013,2 0,0
18.01.2019 11:00:00 4,7 3,2 7 4 O 1013,3 0,0
18.01.2019 10:00:00 4,7 3,4 5 3 O 1012,7 0,0
18.01.2019 09:00:00 5,1 3,8 1 1 OSO 1012,0 0,0
18.01.2019 08:00:00 4,4 3,2 4 2 NO 1011,0 0,0
18.01.2019 07:00:00 5,2 3,2 6 3 NO 1010,7 0,0
18.01.2019 06:00:00 5,6 3,8 3 2 OSO 1010,5 0,0
18.01.2019 05:00:00 5,1 3,9 3 2 S 1010,4 0,0
18.01.2019 04:00:00 4,9 4,3 5 3 O 1010,5 0,4
18.01.2019 03:00:00 4,7 4,3 5 3 NO 1011,4 1,2
18.01.2019 02:00:00 4,7 4,3 3 2 N 1010,9 0,4
18.01.2019 01:00:00 4,4 3,8 5 3 N 1011,3 0,8
18.01.2019 00:00:00 4,7 3,7 4 2 N 1011,6 0,0
17.01.2019 23:00:00 4,7 3,5 4 2 N 1011,6 0,0
17.01.2019 22:00:00 4,8 3,6 4 2 N 1011,7 0,0
17.01.2019 21:00:00 5,0 3,8 4 2 N 1011,9 0,4
17.01.2019 20:00:00 4,9 3,4 4 2 N 1012,2 0,0
17.01.2019 19:00:00 5,3 3,3 3 2 N 1012,3 0,0
17.01.2019 18:00:00 5,4 3,7 3 2 N 1012,6 0,0
17.01.2019 17:00:00 5,7 3,4 3 1 N 1012,4 0,0
17.01.2019 16:00:00 5,6 3,4 2 1 N 1013,0 0,0
17.01.2019 15:00:00 5,2 3,7 4 2 N 1013,5 0,2
17.01.2019 14:00:00 5,8 3,6 5 3 NNE 1014,0 0,0
17.01.2019 13:00:00 6,0 2,8 5 3 NNE 1014,6 0,0
17.01.2019 12:00:00 6,0 2,5 4 2 NE 1015,3 0,0
17.01.2019 11:00:00 6,2 1,5 4 2 ENE 1016,1 0,0
17.01.2019 10:00:00 4,8 1,1 - - - 1016,0 -
17.01.2019 09:00:00 5,3 2,1 3 1 ENE 1015,9 0,0
17.01.2019 08:00:00 6,0 2,6 5 3 ENE 1015,4 0,0
17.01.2019 07:00:00 6,3 2,4 4 2 ENE 1015,7 0,0
17.01.2019 06:00:00 6,2 2,1 - - - 1016,0 -
17.01.2019 05:00:00 6,0 1,3 3 1 S 1016,4 0,0
17.01.2019 04:00:00 6,7 1,0 3 2 SSE 1017,0 0,0
17.01.2019 03:00:00 6,0 0,7 3 1 ONO 1017,7 0,0
17.01.2019 02:00:00 6,4 0,7 3 1 NO 1017,7 0,0
17.01.2019 01:00:00 6,3 0,4 2 1 OSO 1018,0 0,0
17.01.2019 00:00:00 7,4 0,8 - - - 1018,6 0,0
16.01.2019 23:00:00 6,9 0,6 7 4 S 1019,1 0,0
16.01.2019 22:00:00 7,8 0,7 5 3 S 1019,4 0,0
16.01.2019 21:00:00 9,2 1,8 3 2 ESE 1019,0 0,0
16.01.2019 20:00:00 10,3 1,9 3 1 E 1019,0 0,0
16.01.2019 19:00:00 10,5 1,8 - - - 1019,0 -
16.01.2019 18:00:00 10,5 1,8 - - - 1018,9 0,0
16.01.2019 17:00:00 10,9 2,0 5 3 E 1018,8 0,0
16.01.2019 16:00:00 12,3 1,9 5 3 NO 1018,8 0,0
16.01.2019 15:00:00 - - - - - - -
16.01.2019 14:00:00 11,7 1,0 - - - 1019,1 -
16.01.2019 13:00:00 11,3 -1,2 5 3 NNE 1019,7 0,0
16.01.2019 12:00:00 8,8 -1,9 5 3 ONO 1020,7 0,0
16.01.2019 11:00:00 6,6 -2,3 3 2 NO 1021,4 0,0
16.01.2019 10:00:00 6,0 -3,6 2 1 O 1021,2 0,0
16.01.2019 09:00:00 4,0 -3,1 3 1 SSO 1020,9 0,0
16.01.2019 08:00:00 3,0 -4,5 - - - 1020,6 -
16.01.2019 07:00:00 3,2 -3,4 2 1 SSE 1020,4 0,0
16.01.2019 06:00:00 3,4 -4,1 1 1 SSE 1020,3 0,0
16.01.2019 05:00:00 4,2 -4,3 3 1 SSE 1020,3 0,0
16.01.2019 04:00:00 3,4 -3,6 3 2 ESE 1020,7 0,0
16.01.2019 03:00:00 3,0 -4,5 - - - 1021,0 -
16.01.2019 02:00:00 3,8 -4,4 3 2 SO 1020,7 0,0
16.01.2019 01:00:00 3,9 -3,6 3 2 O 1020,7 0,0
16.01.2019 00:00:00 5,8 -3,8 4 2 SSO 1020,7 0,0
15.01.2019 23:00:00 5,5 -4,1 2 1 OSO 1020,7 0,0
15.01.2019 22:00:00 7,2 -5,2 6 4 S 1020,4 0,0
15.01.2019 21:00:00 6,9 -4,8 - - - 1020,2 0,0
15.01.2019 20:00:00 7,5 -4,0 1 0 SSO 1019,9 0,0
15.01.2019 19:00:00 8,4 -4,8 4 2 S 1019,3 0,0
15.01.2019 18:00:00 9,9 -4,9 4 2 SSO 1018,8 0,0
15.01.2019 17:00:00 10,7 -5,8 1 1 O 1018,7 0,0
15.01.2019 16:00:00 11,9 -5,6 3 1 O 1018,5 0,0
15.01.2019 15:00:00 11,6 -5,8 5 3 NO 1018,2 0,0
15.01.2019 14:00:00 11,6 -6,3 5 3 ONO 1018,4 0,0
15.01.2019 13:00:00 11,2 -6,6 7 4 O 1018,7 0,0
15.01.2019 12:00:00 10,6 -5,8 4 2 ONO 1019,4 0,0
15.01.2019 11:00:00 9,0 -5,7 5 3 O 1019,8 0,0
15.01.2019 10:00:00 7,0 -6,4 7 4 OSO 1019,0 0,0
15.01.2019 09:00:00 5,1 -6,5 9 5 SO 1018,3 0,0
15.01.2019 08:00:00 4,1 -5,4 3 1 S 1017,7 0,0
15.01.2019 07:00:00 5,2 -6,4 6 3 SO 1016,6 0,0
15.01.2019 06:00:00 5,9 -6,4 7 4 SO 1015,9 0,0
15.01.2019 05:00:00 6,2 -5,8 4 2 S 1015,7 0,0
15.01.2019 04:00:00 6,8 -5,5 5 3 SSO 1015,5 0,0
15.01.2019 03:00:00 7,1 -5,9 5 3 OSO 1015,5 0,0
15.01.2019 02:00:00 7,3 -5,4 8 4 OSO 1014,9 0,0
15.01.2019 01:00:00 7,5 -5,9 8 4 OSO 1014,3 0,0
15.01.2019 00:00:00 8,0 -6,5 9 5 OSO 1013,5 0,0
14.01.2019 23:00:00 8,8 -7,0 9 5 O 1012,4 0,0
14.01.2019 22:00:00 9,7 -7,1 9 5 O 1011,9 0,0
14.01.2019 21:00:00 10,0 -7,7 10 5 O 1010,9 0,0
14.01.2019 20:00:00 10,5 -8,2 12 6 O 1009,8 0,0
14.01.2019 19:00:00 11,0 -8,3 10 5 O 1008,6 0,0
14.01.2019 18:00:00 12,1 -8,4 9 5 ONO 1007,9 0,0
14.01.2019 17:00:00 13,1 -7,0 12 6 O 1007,2 0,0
14.01.2019 16:00:00 14,6 -6,9 16 9 O 1005,9 0,0
14.01.2019 15:00:00 15,8 -6,5 10 6 O 1005,4 0,0
14.01.2019 14:00:00 15,1 -1,9 13 7 O 1005,0 0,0
14.01.2019 13:00:00 - - - - - - -
14.01.2019 12:00:00 11,9 0,9 9 5 O 1005,6 0,0
14.01.2019 11:00:00 8,2 2,0 - - - 1006,1 0,0
14.01.2019 10:00:00 5,1 0,3 - - - 1006,1 -
14.01.2019 09:00:00 2,1 -0,2 8 4 ESE 1005,3 0,0
14.01.2019 08:00:00 2,5 0,7 4 2 NE 1002,3 0,0
14.01.2019 07:00:00 3,8 0,1 8 4 NNE 1000,3 0,0

tt = Temperatura
td = dewpoint
ff = velocità del vento
dd = direzione del vento
ppp = reduced air pressure
rr = precipitazioni

Stazioni seguenti

WeatherPro
AMSI
MeteoEarth